Location: Newark
(35.8967°N, 14.4625°E)
Time: 06:00:33
(UTC+00:00)

Envisat - Pass Details

Date: 01 November 2019
Orbit: 764 x 766 km, 98.1° (Epoch: 21 November)

Event Time Altitude Azimuth Distance (km) Brightness Sun altitude
Rises 18:21:23 0° 208° (SSW) 3,218 6.6 -27.7°
Reaches altitude 10° 18:24:32 10° 229° (SW) 2,297 6.0 -28.3°
Maximum altitude 18:27:39 16° 267° (W) 1,896 5.8 -29.0°
Drops below altitude 10° 18:30:48 10° 306° (NW) 2,306 6.1 -29.6°
Sets 18:33:59 0° 327° (NNW) 3,237 6.7 -30.2°
